Weather History for KIKT - February, 2014

Change the Weather History Date:

Wednesday, February 5, 2014

  Actual Average Record
Temperature  
Mean Temperature 63 °F -  
Max Temperature 71 °F - - ()
Min Temperature 53 °F - - ()
Degree Days  
Heating Degree Days 2    
Growing Degree Days 13 (Base 50)    
Moisture  
Dew Point 56 °F    
Average Humidity 77    
Maximum Humidity 100    
Minimum Humidity 60    
Precipitation  
Precipitation 0.00 in - - ()
Sea Level Pressure  
Sea Level Pressure 30.09 in    
Wind  
Wind Speed 11 mph (NW)    
Max Wind Speed 29 mph    
Max Gust Speed 36 mph    
Visibility 9 miles    
Events Fog    
T = Trace of Precipitation, MM = Missing Value Source: NWS Daily Summary

Daily Weather History Graph

Daily Weather History Graph

Search for Another Location

Airport or City:

Trip Planner

Search our weather history database for the weather conditions in past years. The results will help you decide how hot, cold, wet, or windy it might be!

Date:

Astronomy

Feb. 05, 2014 Rise Set
Actual Time 6:38 AM CST 5:36 PM CST
Civil Twilight 6:14 AM CST 6:00 PM CST
Nautical Twilight 5:46 AM CST 6:28 PM CST
Astronomical Twilight 5:18 AM CST 6:56 PM CST
Moon 10:28 AM CST (2/5) 11:53 PM CST (2/5)
Length of Visible Light 11h 46m
Length of Day
10h 57m
Waxing Crescent, 39% of the Moon is Illuminated
Feb 5
Waxing Crescent
Feb 6
First Quarter
Feb 14
Full
Feb 22
Last Quarter
Mar 1
New

Hourly Weather History & Observations

Time (CST) Temp. Dew Point Humidity Pressure Visibility Wind Dir Wind Speed Gust Speed Precip Events Conditions
12:15 AM 71.6 °F 71.6 °F 100% 29.97 in 0.2 mi Calm Calm - N/A Fog Fog
12:35 AM 71.6 °F 71.6 °F 100% 29.97 in 0.2 mi SSW 12.7 mph 18.4 mph N/A Fog Fog
12:55 AM 71.6 °F 71.6 °F 100% 29.98 in 0.2 mi SW 9.2 mph 18.4 mph N/A Fog Fog
1:15 AM 71.6 °F 71.6 °F 100% 29.98 in 0.5 mi SW 15.0 mph - N/A Fog Fog
1:35 AM 71.6 °F 71.6 °F 100% 29.98 in 2.5 mi SW 15.0 mph - N/A   Overcast
1:55 AM 71.6 °F 71.6 °F 100% 29.98 in 3.0 mi SW 16.1 mph - N/A   Overcast
2:15 AM 71.6 °F 71.6 °F 100% 29.98 in 4.0 mi WSW 19.6 mph - N/A   Overcast
2:35 AM 71.6 °F 71.6 °F 100% 29.98 in 5.0 mi West 12.7 mph 20.7 mph N/A   Overcast
2:55 AM 71.6 °F 71.6 °F 100% 29.98 in 0.8 mi WSW 17.3 mph - N/A   Overcast
3:15 AM 71.6 °F 71.6 °F 100% 29.98 in 0.2 mi WSW 13.8 mph 21.9 mph N/A Fog Fog
3:35 AM 71.6 °F 71.6 °F 100% 29.98 in 0.8 mi West 18.4 mph - N/A   Overcast
3:55 AM 69.8 °F 69.8 °F 100% 29.99 in 6.0 mi WNW 11.5 mph 21.9 mph N/A   Overcast
4:15 AM 69.8 °F 66.2 °F 88% 29.99 in 8.0 mi WNW 9.2 mph 18.4 mph N/A   Overcast
4:35 AM 69.8 °F 66.2 °F 88% 30.00 in 10.0 mi NW 17.3 mph 23.0 mph N/A   Overcast
4:55 AM 68.0 °F 66.2 °F 94% 30.00 in 10.0 mi WNW 15.0 mph 25.3 mph N/A   Overcast
5:15 AM 66.2 °F 64.4 °F 94% 30.01 in 10.0 mi WNW 11.5 mph 18.4 mph N/A   Overcast
5:35 AM 66.2 °F 64.4 °F 94% 30.02 in 10.0 mi NW 12.7 mph 19.6 mph N/A   Overcast
5:55 AM 66.2 °F 64.4 °F 94% 30.03 in 5.0 mi WNW 15.0 mph 21.9 mph N/A   Overcast
6:15 AM 64.4 °F 60.8 °F 88% 30.04 in 10.0 mi NW 17.3 mph 25.3 mph N/A   Overcast
6:35 AM 64.4 °F 60.8 °F 88% 30.05 in 10.0 mi WNW 12.7 mph 25.3 mph N/A   Overcast
6:55 AM 64.4 °F 60.8 °F 88% 30.05 in 10.0 mi NW 11.5 mph 18.4 mph N/A   Overcast
7:15 AM 64.4 °F 59.0 °F 83% 30.06 in 10.0 mi WNW 11.5 mph 19.6 mph N/A   Overcast
7:35 AM 62.6 °F 59.0 °F 88% 30.06 in 10.0 mi NW 9.2 mph 21.9 mph N/A   Mostly Cloudy
7:55 AM 64.4 °F 59.0 °F 83% 30.07 in 10.0 mi WNW 10.4 mph 18.4 mph N/A   Mostly Cloudy
8:15 AM 64.4 °F 57.2 °F 77% 30.08 in 10.0 mi NW 10.4 mph 23.0 mph N/A   Scattered Clouds
8:35 AM 66.2 °F 53.6 °F 64% 30.08 in 10.0 mi Variable 6.9 mph 15.0 mph N/A   Mostly Cloudy
8:55 AM 66.2 °F 51.8 °F 60% 30.10 in 10.0 mi Variable 6.9 mph - N/A   Overcast
9:15 AM 66.2 °F 51.8 °F 60% 30.12 in 10.0 mi Variable 5.8 mph 18.4 mph N/A   Overcast
9:35 AM 66.2 °F 51.8 °F 60% 30.13 in 10.0 mi Variable 6.9 mph - N/A   Overcast
9:55 AM 66.2 °F 51.8 °F 60% 30.13 in 10.0 mi Variable 5.8 mph 12.7 mph N/A   Overcast
10:15 AM 64.4 °F 53.6 °F 68% 30.14 in 10.0 mi NW 8.1 mph - N/A   Mostly Cloudy
10:35 AM 66.2 °F 53.6 °F 64% 30.14 in 10.0 mi Variable 6.9 mph - N/A   Mostly Cloudy
10:55 AM 66.2 °F 51.8 °F 60% 30.14 in 10.0 mi Variable 6.9 mph 13.8 mph N/A   Overcast
11:15 AM 66.2 °F 53.6 °F 64% 30.13 in 10.0 mi Variable 6.9 mph - N/A   Mostly Cloudy
11:35 AM 66.2 °F 51.8 °F 60% 30.13 in 10.0 mi Variable 5.8 mph - N/A   Partly Cloudy
11:55 AM 66.2 °F 51.8 °F 60% 30.13 in 10.0 mi Variable 5.8 mph - N/A   Partly Cloudy
12:15 PM 64.4 °F 51.8 °F 64% 30.13 in 10.0 mi NW 8.1 mph - N/A   Mostly Cloudy
12:35 PM 62.6 °F 51.8 °F 68% 30.11 in 10.0 mi Variable 6.9 mph - N/A   Overcast
12:55 PM 62.6 °F 53.6 °F 72% 30.11 in 10.0 mi WNW 8.1 mph - N/A   Overcast
1:15 PM 62.6 °F 51.8 °F 68% 30.09 in 10.0 mi NW 8.1 mph - N/A   Overcast
1:35 PM 62.6 °F 51.8 °F 68% 30.08 in 10.0 mi NW 9.2 mph - N/A   Overcast
1:55 PM 62.6 °F 51.8 °F 68% 30.10 in 10.0 mi NW 8.1 mph 13.8 mph N/A   Overcast
2:15 PM 60.8 °F 51.8 °F 72% 30.09 in 10.0 mi Variable 6.9 mph - N/A   Overcast
2:35 PM 60.8 °F 50.0 °F 68% 30.10 in 10.0 mi Variable 5.8 mph 18.4 mph N/A   Mostly Cloudy
2:55 PM 60.8 °F 50.0 °F 68% 30.11 in 10.0 mi NNW 9.2 mph 25.3 mph N/A   Scattered Clouds
3:15 PM 60.8 °F 50.0 °F 68% 30.11 in 10.0 mi Variable 6.9 mph 15.0 mph N/A   Partly Cloudy
3:35 PM 59.0 °F 50.0 °F 72% 30.11 in 10.0 mi NW 6.9 mph 18.4 mph N/A   Clear
3:55 PM 59.0 °F 50.0 °F 72% 30.11 in 10.0 mi NNW 11.5 mph 26.5 mph N/A   Mostly Cloudy
4:15 PM 59.0 °F 50.0 °F 72% 30.12 in 10.0 mi NW 8.1 mph 27.6 mph N/A   Mostly Cloudy
4:35 PM 59.0 °F 50.0 °F 72% 30.12 in 10.0 mi Variable 6.9 mph 16.1 mph N/A   Partly Cloudy
4:55 PM 59.0 °F 48.2 °F 67% 30.11 in 10.0 mi Variable 6.9 mph 25.3 mph N/A   Clear
5:15 PM 59.0 °F 50.0 °F 72% 30.12 in 10.0 mi North 12.7 mph 21.9 mph N/A   Clear
5:35 PM 59.0 °F 48.2 °F 67% 30.13 in 10.0 mi Variable 6.9 mph 20.7 mph N/A   Partly Cloudy
5:55 PM 59.0 °F 50.0 °F 72% 30.13 in 10.0 mi North 12.7 mph 24.2 mph N/A   Partly Cloudy
6:15 PM 59.0 °F 48.2 °F 67% 30.13 in 10.0 mi North 13.8 mph 24.2 mph N/A   Mostly Cloudy
6:35 PM 59.0 °F 48.2 °F 67% 30.15 in 10.0 mi North 13.8 mph 25.3 mph N/A   Scattered Clouds
6:55 PM 59.0 °F 48.2 °F 67% 30.15 in 10.0 mi North 15.0 mph 28.8 mph N/A   Scattered Clouds
7:15 PM 59.0 °F 48.2 °F 67% 30.15 in 10.0 mi North 15.0 mph 29.9 mph N/A   Partly Cloudy
7:35 PM 59.0 °F 46.4 °F 63% 30.16 in 10.0 mi North 17.3 mph 27.6 mph N/A   Mostly Cloudy
7:55 PM 59.0 °F 48.2 °F 67% 30.17 in 10.0 mi North 15.0 mph 25.3 mph N/A   Scattered Clouds
8:15 PM 57.2 °F 48.2 °F 72% 30.17 in 10.0 mi NNE 21.9 mph 27.6 mph N/A   Mostly Cloudy
8:35 PM 57.2 °F 48.2 °F 72% 30.17 in 10.0 mi North 13.8 mph 27.6 mph N/A   Overcast
8:55 PM 59.0 °F 48.2 °F 67% 30.17 in 10.0 mi North 20.7 mph 28.8 mph N/A   Overcast
9:15 PM 57.2 °F 48.2 °F 72% 30.17 in 10.0 mi North 24.2 mph - N/A   Overcast
9:35 PM 57.2 °F 46.4 °F 67% 30.17 in 10.0 mi North 23.0 mph 32.2 mph N/A   Overcast
9:55 PM 57.2 °F 46.4 °F 67% 30.18 in 10.0 mi NNE 24.2 mph - N/A   Overcast
10:15 PM 57.2 °F 48.2 °F 72% 30.18 in 10.0 mi NNE 25.3 mph 32.2 mph N/A   Overcast
10:35 PM 55.4 °F 48.2 °F 77% 30.16 in 10.0 mi NNE 28.8 mph - N/A   Overcast
10:55 PM 55.4 °F 48.2 °F 77% 30.16 in 10.0 mi NNE 28.8 mph 35.7 mph N/A   Overcast
11:15 PM 55.4 °F 48.2 °F 77% 30.17 in 10.0 mi NNE 24.2 mph 32.2 mph N/A   Overcast
11:35 PM 55.4 °F 48.2 °F 77% 30.18 in 10.0 mi North 20.7 mph 29.9 mph N/A   Overcast
11:55 PM 53.6 °F 46.4 °F 77% 30.18 in 10.0 mi NNE 24.2 mph 31.1 mph N/A   Overcast